K42C Weather Reports


Display with metric or nautical units.
time (UTC)temp
F
wind
direction
speed
MPH
gust
MPH
rain 1hr
in
rain 24hr
in
rain mn
in
humidity
%
barometer
mb
20260510130253 46 217 3.0 0.0 0.00 0.01 0.00 77 980.1
20260510125615 45 255 0.0 0.0 0.00 0.01 0.00 81 980.0
20260510124935 44 236 2.0 5.0 0.00 0.01 0.00 81 980.2
20260510124257 43 207 0.0 6.0 0.00 0.01 0.00 82 980.1
20260510123616 43 210 2.0 0.0 0.00 0.01 0.00 83 980.1
20260510122939 42 242 1.0 0.0 0.00 0.01 0.00 85 980.1
20260510122258 42 228 2.0 0.0 0.00 0.01 0.00 85 980.2
20260510121621 42 257 0.0 0.0 0.00 0.01 0.00 87 980.2
20260510120940 41 214 0.0 0.0 0.00 0.01 0.00 90 980.2
20260510115724 39 10 0.0 0.0 0.00 0.01 0.00 94 980.3
20260510115622 39 10 0.0 0.0 0.00 0.01 0.00 94 980.3
20260510114944 38 10 0.0 0.0 0.00 0.01 0.00 96 980.2
20260510114303 37 10 0.0 0.0 0.00 0.01 0.00 98 980.2
20260510113626 35 10 0.0 0.0 0.00 0.01 0.00 99 980.2
20260510112945 34 10 0.0 0.0 0.00 0.01 0.00 100 980.3
20260510112307 33 10 0.0 0.0 0.00 0.01 0.00 100 980.4
20260510111626 32 10 0.0 0.0 0.00 0.01 0.00 100 980.4
20260510110949 31 10 0.0 0.0 0.00 0.01 0.00 100 980.4
20260510110308 31 10 0.0 0.0 0.00 0.01 0.00 100 980.2
20260510105717 30 10 0.0 0.0 0.00 0.01 0.00 100 980.1
20260510105631 30 10 0.0 0.0 0.00 0.01 0.00 100 980.1
20260510104312 29 10 0.0 0.0 0.00 0.01 0.00 100 979.7
20260510103631 29 10 0.0 0.0 0.00 0.01 0.00 100 979.6
20260510102954 29 10 0.0 0.0 0.00 0.01 0.00 100 979.5
20260510102313 29 10 0.0 0.0 0.00 0.01 0.00 100 979.5
20260510101635 29 10 0.0 0.0 0.00 0.01 0.00 100 979.5
20260510100954 30 10 0.0 0.0 0.00 0.01 0.00 100 979.4
20260510100317 30 10 0.0 0.0 0.00 0.01 0.00 100 979.5
20260510095636 30 10 0.0 0.0 0.00 0.01 0.00 100 979.4
20260510094317 31 10 0.0 0.0 0.00 0.01 0.00 100 979.2
20260510093640 31 10 0.0 0.0 0.00 0.01 0.00 100 979.2
20260510092959 31 10 0.0 0.0 0.00 0.01 0.00 99 979.1
20260510092322 31 10 0.0 0.0 0.00 0.01 0.00 99 979.1
20260510091641 31 10 0.0 0.0 0.00 0.01 0.00 99 979.0
20260510091043 31 10 0.0 0.0 0.00 0.01 0.00 98 978.7
20260510091003 31 10 0.0 0.0 0.00 0.01 0.00 98 978.7
20260510090322 32 10 0.0 0.0 0.00 0.01 0.00 98 978.7
20260510085645 32 10 0.0 0.0 0.00 0.01 0.00 98 978.7
20260510084326 31 10 0.0 0.0 0.00 0.01 0.00 97 978.6
20260510083722 32 10 0.0 0.0 0.00 0.01 0.00 97 978.4
20260510083645 32 10 0.0 0.0 0.00 0.01 0.00 97 978.4
20260510083008 32 10 0.0 0.0 0.00 0.01 0.00 96 978.3
20260510082327 32 10 0.0 0.0 0.00 0.01 0.00 96 978.2
20260510081649 32 10 0.0 0.0 0.00 0.01 0.00 95 978.1
20260510080331 33 10 0.0 0.0 0.00 0.01 0.00 94 977.9
20260510075650 34 10 0.0 0.0 0.00 0.01 0.00 94 977.9
20260510075012 34 10 0.0 0.0 0.00 0.01 0.00 93 977.8
20260510074331 35 10 0.0 0.0 0.00 0.01 0.00 93 977.7
20260510073841 35 10 0.0 0.0 0.00 0.01 0.00 92 977.5
20260510073654 35 10 0.0 0.0 0.00 0.01 0.00 92 977.5
20260510073013 35 10 0.0 0.0 0.00 0.01 0.00 92 977.6
20260510072336 36 10 0.0 0.0 0.00 0.01 0.00 91 977.4
20260510071655 36 10 0.0 0.0 0.00 0.01 0.00 91 977.2
20260510071017 36 10 0.0 0.0 0.00 0.01 0.00 90 977.1
20260510070336 37 10 0.0 0.0 0.00 0.01 0.00 89 977.0
20260510065659 37 10 0.0 0.0 0.00 0.01 0.00 88 977.0
20260510065018 38 10 0.0 0.0 0.00 0.01 0.00 87 977.0
20260510064340 38 10 0.0 0.0 0.00 0.01 0.00 86 977.0
20260510063659 38 10 0.0 0.0 0.00 0.01 0.00 85 976.9
20260510063022 39 10 0.0 0.0 0.00 0.01 0.00 84 976.9
20260510062341 39 10 0.0 0.0 0.00 0.01 0.00 83 976.9
20260510061703 40 10 0.0 0.0 0.00 0.01 0.00 82 976.9
20260510061022 40 10 0.0 0.0 0.00 0.01 0.00 81 976.8
20260510060345 41 10 0.0 0.0 0.00 0.01 0.00 80 976.8
20260510055704 41 10 0.0 0.0 0.00 0.01 0.00 79 976.7
20260510055026 42 10 0.0 0.0 0.00 0.01 0.00 77 976.7
20260510054346 42 10 0.0 0.0 0.00 0.01 0.00 76 976.6
20260510053708 42 10 0.0 0.0 0.00 0.01 0.00 74 976.6
20260510053027 43 10 0.0 0.0 0.00 0.01 0.00 74 976.4
20260510052350 43 10 0.0 0.0 0.00 0.01 0.00 74 976.5
20260510051709 43 10 0.0 0.0 0.00 0.01 0.00 73 976.4
20260510051031 43 10 0.0 0.0 0.00 0.01 0.00 72 976.4
20260510050350 43 8 6.0 8.0 0.00 0.01 0.00 72 976.4
20260510045713 44 10 5.0 6.0 0.00 0.01 0.00 71 976.3
20260510045032 44 0 6.0 3.0 0.00 0.01 0.00 70 976.2
20260510044355 44 352 7.0 6.0 0.00 0.01 0.00 70 976.2
20260510043714 45 11 8.0 10.0 0.00 0.01 0.00 69 976.1
20260510043036 45 335 8.0 10.0 0.00 0.01 0.00 70 975.9
20260510042355 44 350 4.0 6.0 0.00 0.01 0.00 71 975.6
20260510041718 44 333 1.0 0.0 0.00 0.01 0.00 71 975.5
20260510041037 45 0 4.0 3.0 0.00 0.01 0.00 70 975.3
20260510035752 46 346 5.0 6.0 0.00 0.00 0.01 69 974.8
20260510035718 46 346 5.0 6.0 0.00 0.00 0.01 69 974.8
20260510035041 46 6 5.0 6.0 0.00 0.00 0.01 67 974.6
20260510033814 47 25 3.0 0.0 0.00 0.00 0.01 64 974.4
20260510033723 47 25 3.0 0.0 0.00 0.00 0.01 64 974.4
20260510033042 47 333 6.0 5.0 0.00 0.00 0.01 63 974.2
20260510032404 48 28 7.0 8.0 0.00 0.00 0.01 62 974.1
20260510031723 48 10 7.0 10.0 0.00 0.00 0.01 61 973.9
20260510031046 48 15 8.0 11.0 0.00 0.00 0.01 60 973.8
20260510025727 49 343 3.0 3.0 0.00 0.00 0.01 57 973.4
20260510025046 50 326 6.0 5.0 0.00 0.00 0.01 56 973.2
20260510024409 51 333 3.0 7.0 0.00 0.00 0.01 55 973.2
20260510023728 51 332 5.0 6.0 0.00 0.00 0.01 54 973.1
20260510023051 51 328 5.0 9.0 0.00 0.00 0.01 55 972.9
20260510022410 51 318 2.0 4.0 0.00 0.00 0.01 57 972.7
20260510021732 51 304 1.0 0.0 0.00 0.00 0.01 59 972.5
20260510021051 51 311 0.0 0.0 0.00 0.00 0.01 60 972.2
20260510020414 51 311 0.0 0.0 0.00 0.00 0.01 60 971.9
20260510015733 51 311 0.0 0.0 0.00 0.00 0.01 60 971.8
20260510015055 52 321 0.0 0.0 0.00 0.00 0.01 60 971.7
20260510014414 52 321 0.0 0.0 0.00 0.00 0.01 59 971.4
20260510013737 53 321 0.0 0.0 0.00 0.00 0.01 57 971.2
20260510013056 53 321 0.0 0.0 0.00 0.00 0.01 56 971.1
20260510012419 54 321 0.0 0.0 0.00 0.00 0.01 55 970.8
20260510011738 54 321 0.0 0.0 0.00 0.00 0.01 54 970.6
20260510011100 55 321 1.0 0.0 0.00 0.00 0.01 53 970.4
20260510010419 55 281 0.0 0.0 0.00 0.00 0.01 52 970.2
20260510005742 56 300 0.0 0.0 0.00 0.00 0.01 52 970.1
20260510005101 56 280 4.0 0.0 0.00 0.00 0.01 52 970.0
20260510004424 56 293 1.0 6.0 0.00 0.00 0.01 51 969.8
20260510003743 56 257 4.0 0.0 0.00 0.00 0.01 51 969.6
20260510002424 57 300 3.0 0.0 0.00 0.00 0.01 52 969.1
20260510001747 57 321 5.0 5.0 0.00 0.00 0.01 51 968.9
20260510000429 58 249 5.0 0.0 0.00 0.00 0.01 52 968.8
20260509235748 58 263 5.0 7.0 0.00 0.00 0.01 52 968.7
20260509235110 58 262 0.0 0.0 0.00 0.00 0.01 55 968.6
20260509234429 58 257 4.0 0.0 0.00 0.00 0.01 55 968.5
20260509233752 58 285 3.0 8.0 0.00 0.00 0.01 55 968.4
20260509233111 58 322 5.0 7.0 0.00 0.00 0.01 55 968.3
20260509232434 59 300 6.0 0.0 0.00 0.00 0.01 55 968.2
20260509231753 59 322 8.0 5.0 0.00 0.00 0.01 55 968.1
20260509230435 59 293 6.0 4.0 0.00 0.00 0.01 54 968.0
20260509225757 60 240 7.0 7.0 0.00 0.00 0.01 53 967.9
20260509225116 60 256 3.0 7.0 0.00 0.00 0.01 53 967.8
20260509224439 60 326 5.0 7.0 0.00 0.00 0.01 53 967.8
20260509223758 60 311 6.0 5.0 0.00 0.00 0.01 53 967.7
20260509223121 60 231 7.0 0.0 0.00 0.00 0.01 52 967.6
20260509222440 60 242 7.0 4.0 0.00 0.00 0.01 53 967.7
20260509221803 60 260 2.0 7.0 0.00 0.00 0.01 52 967.8
20260509221122 59 319 5.0 0.0 0.00 0.00 0.01 53 967.7
20260509220444 59 294 6.0 5.0 0.00 0.00 0.01 51 967.6
20260509215803 59 252 7.0 0.0 0.00 0.00 0.01 50 967.4
20260509215126 59 257 7.0 7.0 0.00 0.00 0.01 49 967.3
20260509214445 60 315 8.0 6.0 0.00 0.00 0.01 48 967.2
20260509213808 60 226 2.0 3.0 0.00 0.00 0.01 47 967.0
20260509213127 61 336 7.0 7.0 0.00 0.00 0.01 47 966.9
20260509212450 61 340 8.0 6.0 0.00 0.00 0.01 46 966.8
20260509211809 62 287 7.0 6.0 0.00 0.00 0.01 44 966.7
20260509211131 62 300 6.0 3.0 0.00 0.00 0.01 45 966.4
20260509210451 62 269 5.0 6.0 0.00 0.00 0.01 44 966.3
20260509205813 63 273 3.0 0.0 0.00 0.00 0.01 44 966.0
20260509205132 63 308 5.0 10.0 0.00 0.00 0.01 43 965.9
20260509204455 63 248 5.0 6.0 0.00 0.00 0.01 43 965.8
20260509203814 63 269 6.0 3.0 0.00 0.00 0.01 43 965.7
20260509203137 63 225 6.0 6.0 0.00 0.00 0.01 42 965.6
20260509202456 63 246 4.0 6.0 0.00 0.00 0.01 42 965.7
20260509201819 64 257 5.0 12.0 0.00 0.00 0.01 42 965.6
20260509201138 64 228 7.0 16.0 0.00 0.00 0.01 42 965.6
20260509200500 64 356 4.0 0.0 0.00 0.00 0.01 43 965.4
20260509195820 64 269 8.0 5.0 0.00 0.00 0.01 41 965.5
20260509195142 64 277 7.0 5.0 0.00 0.00 0.01 42 965.4
20260509194501 64 228 7.0 9.0 0.00 0.00 0.01 42 965.2
20260509193824 63 204 5.0 8.0 0.00 0.00 0.01 48 965.4
20260509193143 63 215 6.0 0.0 0.00 0.00 0.01 49 965.4
20260509192506 63 250 4.0 0.0 0.00 0.00 0.01 53 965.1
20260509191825 63 249 8.0 5.0 0.00 0.00 0.01 54 965.3
20260509191148 62 211 10.0 11.0 0.00 0.00 0.01 55 965.3
20260509190507 62 239 6.0 4.0 0.00 0.00 0.01 59 965.2
20260509185830 62 243 7.0 9.0 0.00 0.00 0.01 58 965.3
20260509185149 63 205 2.0 0.0 0.00 0.00 0.01 57 965.2
20260509184511 62 301 7.0 7.0 0.00 0.00 0.01 56 965.3
20260509183831 62 346 7.0 6.0 0.00 0.00 0.01 56 965.1
20260509183153 61 233 8.0 5.0 0.00 0.00 0.01 56 965.2
20260509182513 61 205 9.0 4.0 0.00 0.00 0.01 58 965.2
20260509181835 61 264 3.0 0.0 0.00 0.00 0.01 60 965.3
20260509181154 61 224 5.0 0.0 0.00 0.00 0.01 60 965.4
20260509180517 61 200 8.0 5.0 0.00 0.00 0.01 60 965.4
20260509175836 60 204 2.0 0.0 0.01 0.00 0.01 61 965.5
20260509175159 59 252 2.0 3.0 0.01 0.00 0.01 62 965.5
20260509174518 59 263 7.0 8.0 0.01 0.00 0.01 61 965.5
20260509173841 59 173 2.0 0.0 0.01 0.00 0.01 65 965.4
20260509173200 58 235 5.0 5.0 0.01 0.00 0.01 66 965.4
20260509172523 58 203 4.0 8.0 0.01 0.00 0.01 67 965.5
20260509171842 58 176 3.0 0.0 0.01 0.00 0.01 67 965.6
20260509171204 58 274 3.0 0.0 0.01 0.00 0.01 69 965.7
20260509170524 57 249 2.0 5.0 0.01 0.00 0.01 71 965.8
20260509165846 57 257 0.0 3.0 0.00 0.00 0.01 72 966.0
20260509165206 56 208 0.0 0.0 0.00 0.00 0.01 74 966.0
20260509164528 56 200 0.0 0.0 0.00 0.00 0.01 75 966.3
20260509163847 55 187 4.0 0.0 0.00 0.00 0.01 77 966.3
20260509163210 54 177 1.0 0.0 0.00 0.00 0.01 80 966.1
20260509161211 53 255 3.0 7.0 0.00 0.00 0.01 80 966.4
20260509160534 54 290 1.0 3.0 0.00 0.00 0.00 77 966.8
20260509155853 54 283 4.0 7.0 0.00 0.00 0.00 74 966.9
20260509155216 55 240 1.0 0.0 0.00 0.00 0.00 74 966.7
20260509154535 55 298 3.0 6.0 0.00 0.00 0.00 76 966.5
20260509153857 55 276 4.0 3.0 0.00 0.00 0.00 79 966.4
20260509153217 55 308 4.0 7.0 0.00 0.00 0.00 80 966.2
20260509152539 55 284 6.0 5.0 0.00 0.00 0.00 79 965.7
20260509151858 55 308 2.0 3.0 0.00 0.00 0.00 79 965.4
20260509151221 55 325 8.0 3.0 0.00 0.00 0.00 78 965.8
20260509150540 56 229 6.0 11.0 0.00 0.00 0.00 78 965.5
20260509145903 56 271 5.0 9.0 0.00 0.00 0.00 79 964.9
20260509145222 56 211 3.0 7.0 0.00 0.00 0.00 81 964.6
20260509143904 57 269 9.0 5.0 0.00 0.00 0.00 78 964.5
20260509143227 58 260 8.0 10.0 0.00 0.00 0.00 77 964.3
20260509142546 58 203 6.0 8.0 0.00 0.00 0.00 82 964.0
20260509141908 58 257 6.0 6.0 0.00 0.00 0.00 82 964.0
20260509141343 58 217 4.0 9.0 0.00 0.00 0.00 84 964.1
20260509141228 58 217 4.0 9.0 0.00 0.00 0.00 84 964.1
20260509140550 58 257 10.0 4.0 0.00 0.00 0.00 84 964.1
20260509135909 57 203 6.0 6.0 0.00 0.00 0.00 86 964.0
20260509135232 57 218 7.0 7.0 0.00 0.00 0.00 87 964.0
20260509134551 57 267 7.0 5.0 0.00 0.00 0.00 88 963.9
20260509133233 57 212 10.0 5.0 0.00 0.00 0.00 88 964.0
20260509132556 57 256 8.0 9.0 0.00 0.00 0.00 89 963.9
20260509131915 56 248 3.0 10.0 0.00 0.00 0.00 90 964.0
20260509131238 56 208 10.0 13.0 0.00 0.00 0.00 89 963.9